Weather History for Asheville, NC

Change the Weather History Date:

Thursday, August 28, 2008

  Actual Average Record
Temperature  
Mean Temperature 72 °F 72 °F  
Max Temperature 79 °F 82 °F 93 °F (1948)
Min Temperature 65 °F 61 °F 48 °F (1968)
Degree Days  
Heating Degree Days 0 0  
Month to date heating degree days 0 0  
Since 1 June heating degree days 14  
Since 1 July heating degree days 1 0  
Cooling Degree Days 7 7  
Month to date cooling degree days 221 229  
Year to date cooling degree days 745 739  
Since 1 June cooling degree days 681  
Growing Degree Days 23 (Base 50)    
Moisture  
Dew Point 66 °F    
Average Humidity 78    
Maximum Humidity 97    
Minimum Humidity 58    
Precipitation  
Precipitation 0.08 in 0.13 in 1.75 in (1949)
Month to date precipitation 5.84 3.98  
Year to date precipitation 25.74 31.19  
Snow  
Snow 0.00 in 0.00 in 0.00 in ()
Month to date snowfall 0.0 0.0  
Since 1 June snowfall 0.0  
Since 1 July snowfall 0.0 0.0  
Snow Depth -    
Sea Level Pressure  
Sea Level Pressure 29.90 in    
Wind  
Wind Speed 6 mph (NNW)    
Max Wind Speed 16 mph    
Max Gust Speed 18 mph    
Visibility 7 miles    
Events Rain    
T = Trace of Precipitation, MM = Missing Value Source: NWS Daily Summary

Daily Weather History Graph

Daily Weather History Graph

Search for Another Location

Airport:

Trip Planner

Search our weather history database for the weather conditions in past years. The results will help you decide how hot, cold, wet, or windy it might be!

Date:

Astronomy

Aug. 28, 2008 Rise Set
Actual Time 6:59 AM EDT 8:02 PM EDT
Civil Twilight 6:33 AM EDT 8:28 PM EDT
Nautical Twilight 6:02 AM EDT 8:59 PM EDT
Astronomical Twilight 5:30 AM EDT 9:31 PM EDT
Moon 4:23 AM EDT (8/28) 6:49 PM EDT (8/28)
Length of Visible Light 13h 54m
Length of Day
13h 02m
Waning Crescent, 6% of the Moon is Illuminated
Aug 28
Waning Crescent
Aug 30
New
Sep 7
First Quarter
Sep 15
Full
Sep 22
Last Quarter

Hourly Weather History & Observations

Time (EDT) Temp. Dew Point Humidity Pressure Visibility Wind Dir Wind Speed Gust Speed Precip Events Conditions
12:26 AM 69.8 °F 66.2 °F 88% 29.92 in 10.0 mi NNW 5.8 mph - N/A   Overcast
12:54 AM 70.0 °F 68.0 °F 93% 29.84 in 10.0 mi NNW 3.5 mph - N/A   Overcast
1:54 AM 69.1 °F 68.0 °F 96% 29.84 in 10.0 mi NW 3.5 mph - N/A   Overcast
2:54 AM 69.1 °F 68.0 °F 96% 29.82 in 10.0 mi North 3.5 mph - N/A   Overcast
3:54 AM 69.1 °F 66.9 °F 93% 29.82 in 10.0 mi NW 4.6 mph - N/A   Overcast
4:54 AM 69.1 °F 66.9 °F 93% 29.83 in 7.0 mi North 4.6 mph - 0.00 in Rain Light Rain
5:02 AM 69.8 °F 66.2 °F 88% 29.90 in 5.0 mi NNW 6.9 mph - 0.01 in Rain Light Rain
5:09 AM 68.0 °F 66.2 °F 94% 29.90 in 6.0 mi NNW 4.6 mph - 0.01 in Rain Light Rain
5:24 AM 68.0 °F 66.2 °F 94% 29.91 in 9.0 mi NW 3.5 mph - 0.02 in Rain Light Rain
5:43 AM 68.0 °F 66.2 °F 94% 29.91 in 10.0 mi WNW 3.5 mph - 0.02 in   Overcast
5:54 AM 68.0 °F 66.9 °F 96% 29.83 in 10.0 mi NNE 3.5 mph - 0.02 in   Overcast
6:54 AM 68.0 °F 66.9 °F 96% 29.84 in 2.0 mi Calm Calm - 0.00 in   Overcast
7:13 AM 68.0 °F 66.2 °F 94% 29.92 in 2.0 mi Calm Calm - N/A   Overcast
7:54 AM 68.0 °F 66.2 °F 94% 29.93 in 2.0 mi ENE 3.5 mph - N/A   Overcast
8:54 AM 68.0 °F 66.0 °F 93% 29.87 in 3.0 mi Calm Calm - N/A   Overcast
9:20 AM 68.0 °F 66.2 °F 94% 29.95 in 2.5 mi NW 4.6 mph - 0.00 in Rain Light Rain
9:37 AM 68.0 °F 66.2 °F 94% 29.95 in 2.5 mi NNW 8.1 mph - 0.01 in Rain Light Rain
9:47 AM 68.0 °F 66.2 °F 94% 29.95 in 2.5 mi NNW 6.9 mph - 0.01 in Rain Light Rain
9:51 AM 68.0 °F 66.2 °F 94% 29.95 in 1.5 mi North 6.9 mph - 0.01 in Rain Light Rain
9:54 AM 68.0 °F 66.9 °F 96% 29.88 in 1.5 mi North 5.8 mph - 0.02 in Rain Light Rain
9:56 AM 68.0 °F 66.2 °F 94% 29.95 in 3.0 mi North 4.6 mph - 0.00 in Rain Light Rain
9:59 AM 69.8 °F 66.2 °F 88% 29.96 in 4.0 mi North 6.9 mph - 0.00 in Rain Light Rain
10:04 AM 68.0 °F 66.2 °F 94% 29.95 in 3.0 mi North 5.8 mph - 0.00 in Rain Light Rain
10:11 AM 68.0 °F 66.2 °F 94% 29.95 in 1.5 mi North 4.6 mph - 0.01 in Rain Light Rain
10:18 AM 69.8 °F 66.2 °F 88% 29.95 in 1.0 mi North 5.8 mph - 0.01 in Rain Light Rain
10:54 AM 69.1 °F 66.9 °F 93% 29.89 in 2.0 mi North 9.2 mph - 0.03 in Rain Light Rain
11:08 AM 69.8 °F 66.2 °F 88% 29.97 in 4.0 mi NNW 9.2 mph - 0.01 in Rain Light Rain
11:11 AM 69.8 °F 66.2 °F 88% 29.97 in 4.0 mi NNW 10.4 mph - 0.01 in Rain Light Rain
11:30 AM 69.8 °F 66.2 °F 88% 29.96 in 10.0 mi NNW 8.1 mph - 0.01 in Rain Light Rain
11:46 AM 71.6 °F 68.0 °F 88% 29.96 in 10.0 mi North 8.1 mph - 0.01 in   Overcast
11:54 AM 71.1 °F 66.9 °F 87% 29.89 in 10.0 mi North 8.1 mph - 0.01 in   Overcast
12:39 PM 71.6 °F 66.2 °F 83% 29.96 in 10.0 mi NNW 9.2 mph - N/A   Overcast
12:54 PM 73.0 °F 66.0 °F 79% 29.88 in 10.0 mi North 6.9 mph - N/A   Overcast
1:54 PM 73.9 °F 66.0 °F 76% 29.88 in 10.0 mi Variable 6.9 mph - N/A   Overcast
2:54 PM 75.0 °F 64.0 °F 69% 29.87 in 10.0 mi NNW 12.7 mph - 0.00 in Rain Light Rain
3:54 PM 78.1 °F 64.0 °F 62% 29.86 in 10.0 mi NNW 11.5 mph - 0.00 in   Mostly Cloudy
4:54 PM 78.1 °F 63.0 °F 60% 29.86 in 10.0 mi NNW 12.7 mph - N/A   Clear
5:54 PM 75.0 °F 62.1 °F 64% 29.86 in 10.0 mi NNW 11.5 mph - N/A   Clear
6:54 PM 75.0 °F 63.0 °F 66% 29.87 in 10.0 mi North 5.8 mph - N/A   Mostly Cloudy
7:54 PM 73.9 °F 63.0 °F 68% 29.88 in 10.0 mi NNW 9.2 mph - N/A   Overcast
8:54 PM 72.0 °F 63.0 °F 73% 29.90 in 10.0 mi NNW 8.1 mph - N/A   Overcast
9:54 PM 71.1 °F 64.0 °F 78% 29.91 in 10.0 mi NNW 5.8 mph - N/A   Overcast
10:54 PM 70.0 °F 64.0 °F 81% 29.91 in 10.0 mi North 4.6 mph - N/A   Mostly Cloudy
11:54 PM 68.0 °F 64.0 °F 87% 29.91 in 10.0 mi Calm Calm - N/A   Partly Cloudy